"Time","Temp","Dewpoint","Humidity","Pressure","Direction","Speed","Gust","Precip","PrecipRate"
"00:04:56","70.8","69.9","97","29.89","129","1.9","4.8","0.01","0.02"
"00:09:56","70.9","70","97","29.89","153","3.2","6","0.06","0.07"
"00:14:59","71","70.1","97","29.89","155","3","6","0.08","0.09"
"00:19:56","71.2","70.3","97","29.89","163","2.2","7.2","0.08","0.08"
"00:24:56","71.4","70.5","97","29.89","158","2","4.8","0.08","0.08"
"00:29:59","71.5","70.6","97","29.89","158","1.7","4.8","0.08","0.08"
"00:34:58","71.5","70.6","97","29.89","159","1.9","4.8","0.08","0.08"
"00:39:58","71.6","70.7","97","29.89","159","1.1","2.4","0.08","0.08"
"00:44:57","71.7","70.8","97","29.89","159","0.4","2.4","0.08","0.08"
"00:49:57","71.7","70.8","97","29.89","159","0.1","1.2","0.08","0.08"
"00:54:56","71.7","70.8","97","29.89","159","0.3","1.2","0.08","0.08"
"00:59:59","71.7","70.8","97","29.89","159","0.4","2.4","0.08","0.08"
"01:04:58","71.6","70.7","97","29.89","159","0","1.2","0.08","0.08"
"01:09:57","71.5","70.6","97","29.89","159","0","1.2","0.08","0.07"
"01:14:57","71.5","70.6","97","29.90","159","0","0","0.08","0.02"
"01:19:56","71.3","70.4","97","29.90","159","0","0","0.08","0.00"
"01:24:59","71.2","70.3","97","29.90","159","0","0","0.08","0.00"
"01:29:59","71.2","70.3","97","29.90","159","0","0","0.08","0.00"
"01:34:58","71.3","70.4","97","29.89","159","0.4","2.4","0.08","0.00"
"01:39:58","71.3","70.4","97","29.89","159","0.2","2.4","0.08","0.00"
"01:44:57","71.3","70.4","97","29.89","159","0.3","2.3","0.08","0.00"
"01:49:57","71.2","70.3","97","29.89","159","0.4","2.4","0.08","0.00"
"01:54:56","71.1","70.2","97","29.89","159","0.4","2.4","0.08","0.00"
"01:59:59","71","70.1","97","29.89","159","0.5","2.4","0.08","0.00"
"02:04:59","71","70.1","97","29.89","159","0.2","1.2","0.08","0.00"
"02:09:57","71.1","70.2","97","29.89","159","0","1.2","0.08","0.00"
"02:14:57","71","70.1","97","29.89","159","0","0","0.08","0.00"
"02:19:57","70.9","70","97","29.89","159","0","0","0.08","0.00"
"02:24:56","70.9","70","97","29.89","159","0.1","2.4","0.08","0.00"
"02:29:59","71","70.1","97","29.90","159","0.3","2.4","0.08","0.00"
"02:34:58","71","70.2","97.4","29.90","159","0.2","2.4","0.08","0.00"
"02:39:58","71","70.2","97.2","29.90","159","0.1","1.2","0.08","0.00"
"02:44:57","70.9","70","97","29.90","160","0.7","3.6","0.09","0.00"
"02:49:56","71","70.2","97.5","29.90","163","1.5","3.6","0.09","0.01"
"02:54:59","71.1","70.5","98","29.90","163","1.6","4.8","0.09","0.01"
"02:59:59","71.1","70.5","98","29.90","163","1","3.6","0.09","0.01"
"03:04:59","71.1","70.5","98","29.90","163","1.1","3.6","0.09","0.01"
"03:09:58","71.2","70.6","98","29.90","163","0.3","2.3","0.09","0.01"
"03:14:57","71.1","70.5","98","29.90","163","0.1","1.2","0.09","0.01"
"03:19:57","71","70.1","97.1","29.89","163","0.2","1.2","0.09","0.01"
"03:24:56","70.9","70.1","97.4","29.89","163","0.2","1.2","0.09","0.01"
"03:29:59","70.9","70.2","97.8","29.89","163","0.2","2.4","0.09","0.01"
"03:34:59","70.9","70.3","98","29.89","163","0.1","1.2","0.09","0.01"
"03:39:59","70.9","70.1","97.5","29.89","163","0","1.2","0.09","0.01"
"03:44:58","70.8","69.9","97.3","29.89","163","0","0","0.09","0.01"
"03:49:56","70.7","70.1","98","29.89","163","0","0","0.09","0.00"
"03:54:59","70.7","70.1","98","29.89","163","0","0","0.09","0.00"
"03:59:58","70.6","70","98","29.89","163","0","0","0.09","0.00"
"04:04:57","70.6","70","98","29.89","163","0","0","0.09","0.00"
"04:09:56","70.5","69.9","98","29.89","163","0","0","0.09","0.00"
"04:14:59","70.3","69.6","97.5","29.89","163","0","0","0.09","0.00"
"04:19:58","70.2","69.6","97.9","29.89","163","0","0","0.09","0.00"
"04:24:57","70.1","69.4","97.7","29.89","163","0","0","0.09","0.00"
"04:29:56","70","69.4","98","29.89","163","0","0","0.09","0.00"
"04:34:59","69.8","69.2","98","29.89","163","0","0","0.09","0.00"
"04:39:56","69.8","69.2","98","29.89","163","0","0","0.09","0.00"
"04:44:58","69.8","69.1","97.8","29.89","163","0","0","0.09","0.00"
"04:49:57","69.6","68.8","97.1","29.88","163","0","0","0.09","0.00"
"04:54:56","69.5","68.8","97.4","29.88","163","0","0","0.09","0.00"
"04:59:59","69.4","68.6","97.2","29.89","163","0","0","0.09","0.00"
"05:04:58","69.3","68.7","97.9","29.89","163","0","0","0.09","0.00"
"05:09:57","69.3","68.7","98","29.89","163","0","0","0.09","0.00"
"05:14:56","69.2","68.6","98","29.89","163","0","0","0.09","0.00"
"05:19:56","69.2","68.6","98","29.89","163","0","0","0.09","0.00"
"05:24:59","69.1","68.5","98","29.89","163","0","0","0.09","0.00"
"05:29:58","69","68.4","98","29.89","163","0","0","0.09","0.00"
"05:34:57","69","68.4","98","29.89","163","0","0","0.09","0.00"
"05:39:57","69","68.4","98","29.89","163","0","0","0.09","0.00"
"05:44:59","69.2","68.6","98","29.90","163","0","0","0.09","0.00"
"05:49:58","69.2","68.6","98","29.90","199","0","0","0.09","0.00"
"05:54:59","69.2","68.6","98","29.90","199","0","0","0.09","0.00"
"05:59:57","69.1","68.5","98","29.90","199","0","0","0.09","0.00"
"06:04:57","69","68.4","98","29.89","199","0","0","0.09","0.00"
"06:09:56","68.9","68.3","98","29.89","334","0","0","0.09","0.00"
"06:14:59","68.8","68.2","98","29.90","334","0","0","0.09","0.00"
"06:19:58","68.8","68.2","98","29.90","334","0","0","0.09","0.00"
"06:24:56","68.9","68.3","98","29.90","337","0","0","0.09","0.00"
"06:29:59","69","68.4","98","29.91","337","0","1.2","0.09","0.00"
"06:34:56","68.9","68.3","98","29.91","337","0","0","0.09","0.00"
"06:39:59","69","68.4","98","29.91","337","0","0","0.09","0.00"
"06:44:57","69.1","68.5","98","29.91","294","0","0","0.09","0.00"
"06:49:59","69.3","68.7","98","29.91","294","0","1.2","0.09","0.00"
"06:54:57","69.5","68.9","98","29.91","294","0","0","0.09","0.00"
"06:59:58","70","69.7","98.9","29.92","296","0","0","0.09","0.00"
"07:04:57","70.4","69.8","98","29.92","296","0","0","0.09","0.00"
"07:09:56","70.5","69.9","98.1","29.92","296","0","0","0.09","0.00"
"07:14:56","70.7","70.1","98.1","29.92","296","0","0","0.09","0.00"
"07:19:59","70.9","70.3","98.1","29.92","296","0","0","0.09","0.00"
"07:24:56","71.3","71","99","29.92","296","0","0","0.09","0.00"
"07:29:58","71.6","71.2","98.5","29.93","296","0","0","0.09","0.00"
"07:34:56","71.8","71.5","98.9","29.93","296","0","0","0.09","0.00"
"07:39:59","71.7","71.1","98","29.93","296","0.1","1.2","0.09","0.00"
"07:44:56","71.7","71.1","98","29.94","296","0.4","2.4","0.09","0.00"
"07:49:59","71.9","71.3","98","29.94","296","0.1","1.2","0.09","0.00"
"07:54:57","72.1","71.5","98","29.94","296","0","0","0.09","0.00"
"07:59:56","72.2","71.6","98","29.94","296","1.2","3.6","0.09","0.00"
"08:04:59","72.5","71.9","98","29.93","296","1.2","3.6","0.09","0.00"
"08:09:57","72.9","72.3","98","29.93","296","0.7","2.4","0.09","0.00"
"08:14:59","73.4","72.8","98","29.94","296","0","0","0.09","0.00"
"08:19:57","74","73.4","98","29.94","296","0","0","0.09","0.00"
"08:24:59","74.6","73.8","97.4","29.94","296","0.6","3.6","0.09","0.00"
"08:29:57","75.3","74.2","96.1","29.94","293","1.3","4.8","0.09","0.00"
"08:34:58","76.3","73.3","90.6","29.94","305","2.1","6","0.09","0.00"
"08:39:57","76.9","72.5","86.3","29.94","335","2.6","6","0.09","0.00"
"08:44:59","77.1","72.8","86.5","29.95","333","1.1","3.6","0.09","0.00"
"08:49:57","77.1","73","87.4","29.95","331","0.7","3.5","0.09","0.00"
"08:54:59","77.2","73.3","87.7","29.95","331","0.5","2.4","0.09","0.00"
"08:59:57","77.2","73","87.1","29.95","329","0.9","3.6","0.09","0.00"
"09:04:59","77.3","72.4","85.2","29.95","291","1.8","3.6","0.09","0.00"
"09:09:58","77.3","72.4","84.8","29.95","292","1.3","4.8","0.09","0.00"
"09:14:56","77.4","72.5","85.1","29.95","296","1.1","3.6","0.09","0.00"
"09:19:58","77.4","72.4","84.6","29.95","315","1.4","4.8","0.09","0.00"
"09:24:58","77.6","73","85.7","29.95","213","1.6","6","0.09","0.00"
"09:29:56","78.1","73.4","85.5","29.95","212","1.8","5.8","0.09","0.00"
"09:34:58","78.6","73.3","83.9","29.95","219","1.8","7.2","0.09","0.00"
"09:39:58","78.9","73.3","83","29.95","214","2.1","6.9","0.09","0.00"
"09:44:57","79.3","73.5","82.5","29.95","227","2.7","7.2","0.09","0.00"
"09:49:57","79.8","73.4","80.9","29.95","289","2.2","6","0.09","0.00"
"09:54:56","80.2","73.5","80.1","29.95","293","2.3","7.2","0.09","0.00"
"09:59:59","80.5","72.9","77.8","29.95","335","2.8","12","0.09","0.00"
"10:04:59","80.9","72.2","75.2","29.95","315","3.4","8.4","0.09","0.00"
"10:09:58","80.7","71.6","74","29.95","273","2.3","7.2","0.09","0.00"
"10:14:58","80.5","72","75.6","29.95","272","1.7","4.8","0.09","0.00"
"10:19:57","80.5","72.1","75.7","29.95","287","2.9","7.2","0.09","0.00"
"10:24:56","80.7","72.1","75.3","29.95","317","2.8","9.6","0.09","0.00"
"10:29:59","81","72.2","74.7","29.95","331","4.2","8.4","0.09","0.00"
"10:34:57","81.6","72.8","74.8","29.95","336","3","7.2","0.09","0.00"
"10:39:58","81.9","73","74.6","29.95","289","2.1","4.8","0.09","0.00"
"10:44:56","82.2","72.7","73.1","29.95","295","3.2","8.4","0.09","0.00"
"10:49:56","82.1","72.9","73.9","29.95","230","2.2","4.8","0.09","0.00"
"10:54:58","81.9","72.6","73.3","29.95","284","2.3","7.2","0.09","0.00"
"10:59:58","81.9","73.2","74.8","29.95","313","1.8","4.8","0.09","0.00"
"11:04:57","82.1","72.8","73.7","29.95","338","3.7","13.2","0.09","0.00"
"11:09:57","82.2","72.7","73.1","29.95","326","3.2","12","0.09","0.00"
"11:14:57","82.4","72.8","72.8","29.95","337","3.9","9.6","0.09","0.00"
"11:19:56","83.6","73.8","72.5","29.95","309","3.7","12","0.09","0.00"
"11:24:58","84.3","74","71.5","29.95","332","5.4","14.4","0.09","0.00"
"11:29:58","84.4","73.2","69.3","29.95","256","3.2","15","0.09","0.00"
"11:34:56","84.8","73.5","69","29.95","343","5","15.6","0.09","0.00"
"11:39:56","85.1","73.5","68.3","29.95","279","3.6","16.1","0.09","0.00"
"11:44:58","85.8","74","67.9","29.96","318","4.5","12","0.09","0.00"
"11:49:58","85.9","73.7","67.1","29.96","316","5.4","13.2","0.09","0.00"
"11:54:57","85.2","73.1","67.1","29.96","329","3.1","7.2","0.09","0.00"
"11:59:56","84.6","73.1","68.5","29.96","307","2.4","8.4","0.09","0.00"
"12:04:56","84.2","72.9","68.8","29.96","297","2.3","6","0.09","0.00"
"12:09:56","83.9","72.6","69","29.96","347","3.4","7.2","0.09","0.00"
"12:14:58","83.8","72.8","69.6","29.96","293","2.2","4.8","0.09","0.00"
"12:19:57","83.9","73.6","71.1","29.95","226","2","4.8","0.09","0.00"
"12:24:57","84.2","73.7","71","29.95","225","2.1","6","0.09","0.00"
"12:29:56","84.3","73.8","70.8","29.95","231","1.9","5.8","0.09","0.00"
"12:34:57","84.9","73.7","69.5","29.95","320","4.4","10.8","0.09","0.00"
"12:39:58","85.4","73.3","67.4","29.95","345","3.9","10.8","0.09","0.00"
"12:44:56","86.6","75.2","69","29.95","300","3.7","13.2","0.09","0.00"
"12:49:59","86.8","74.4","66.7","29.95","259","3.5","8.4","0.09","0.00"
"12:54:58","86.8","74.1","66","29.95","343","4.2","10.8","0.09","0.00"
"12:59:57","87.4","74","64.5","29.95","309","3.3","13.2","0.09","0.00"
"13:04:57","87.4","73.1","62.7","29.95","314","3.7","10.8","0.09","0.00"
"13:09:57","86.8","73.6","64.9","29.95","268","2.4","8.1","0.09","0.00"
"13:14:56","86","73","65.5","29.95","330","2.2","7.2","0.09","0.00"
"13:19:59","85.4","72.8","66.1","29.95","229","2.6","8.4","0.09","0.00"
"13:24:58","85.5","72.8","66","29.95","231","2.1","4.8","0.09","0.00"
"13:29:58","85.9","73.6","66.9","29.95","311","1.5","6","0.09","0.00"
"13:34:56","87.2","73.7","64.3","29.94","317","3.5","12","0.09","0.00"
"13:39:56","87","73","63.3","29.94","269","2.2","6","0.09","0.00"
"13:44:59","86.6","72.1","62.2","29.94","317","3.6","12","0.09","0.00"
"13:49:58","87.4","72.3","61","29.94","271","4.1","12","0.09","0.00"
"13:54:57","87.8","71.5","58.8","29.94","323","5","13.2","0.09","0.00"
"13:59:56","88","71.6","58.5","29.94","314","4.8","13.2","0.09","0.00"
"14:04:56","88.2","72.4","59.7","29.93","272","4.3","13.2","0.09","0.00"
"14:09:55","88.7","73.2","60.4","29.93","313","3.8","12.7","0.09","0.00"
"14:14:59","89","72.6","58.5","29.93","297","4.8","17.3","0.09","0.00"
"14:19:59","88.8","72.4","58.7","29.93","331","5","13.2","0.09","0.00"
"14:24:58","89.1","73.7","60.6","29.93","233","4","10.4","0.09","0.00"
"14:29:57","88.3","73.3","61.4","29.93","262","4.7","9.6","0.09","0.00"
"14:34:57","87.6","74","64.2","29.93","228","4.2","10.8","0.09","0.00"
"14:39:57","88.1","74.5","64.3","29.93","210","3.2","7.2","0.09","0.00"
"14:44:57","88.7","74.7","63.5","29.93","206","3.2","7.2","0.09","0.00"
"14:49:56","88.9","75","63.7","29.93","214","4.7","10.8","0.09","0.00"
"14:54:56","89","74.9","63.2","29.93","213","3.7","8.1","0.09","0.00"
"14:59:59","89.2","75.2","63.5","29.93","231","3.9","7.2","0.09","0.00"
"15:04:56","88.7","75","64.1","29.93","195","3","7.2","0.09","0.00"
"15:09:55","88.3","74.8","64.5","29.93","205","4.6","8.4","0.09","0.00"
"15:14:56","88.4","74.6","63.9","29.93","216","4.5","10.8","0.09","0.00"
"15:19:56","88.8","74.2","62.1","29.93","279","3.8","13.2","0.09","0.00"
"15:24:59","88.9","73.7","61","29.93","300","5.1","12","0.09","0.00"
"15:29:59","89","73","59.5","29.93","294","4.7","15","0.09","0.00"
"15:34:59","89.2","73.5","60.1","29.93","256","6.3","17.3","0.09","0.00"
"15:39:59","89.1","73.8","60.7","29.93","239","5.2","17.3","0.09","0.00"
"15:44:58","88.7","72.4","58.7","29.93","236","4","8.4","0.09","0.00"
"15:49:59","87.9","71.5","58.3","29.93","278","2.8","12","0.09","0.00"
"15:54:59","87.1","71","59.1","29.93","292","2.9","7.2","0.09","0.00"
"15:59:59","86.2","70.4","59.3","29.93","312","3.6","8.4","0.09","0.00"
"16:04:59","85.6","70.8","61.4","29.93","286","2.6","8.1","0.09","0.00"
"16:09:59","85.2","70.6","61.7","29.93","261","2.6","6","0.09","0.00"
"16:14:59","85","70.7","62.6","29.94","299","2.4","7.2","0.09","0.00"
"16:19:59","84.8","71","63.4","29.94","312","2.3","6.9","0.09","0.00"
"16:24:59","84.9","71.2","63.8","29.94","303","2.8","6","0.09","0.00"
"16:29:58","84.9","71.8","64.9","29.94","319","1.8","6","0.09","0.00"
"16:34:57","85","71.5","64.2","29.93","326","3.6","8.4","0.09","0.00"
"16:39:58","84.8","71.3","64.2","29.93","344","3.3","7.2","0.09","0.00"
"16:44:58","84.8","71.6","64.8","29.93","297","3","8.4","0.09","0.00"
"16:49:58","85.3","72.3","65.3","29.93","266","2.1","6","0.09","0.00"
"16:54:58","86.1","72.4","63.8","29.93","309","3.1","8.4","0.09","0.00"
"16:59:58","86.6","72","62.1","29.93","341","3.2","10.8","0.09","0.00"
"17:04:58","87","72.9","63","29.92","322","3","7.2","0.09","0.00"
"17:09:58","87.5","72.5","61.4","29.92","315","3.7","12","0.09","0.00"
"17:14:57","87.7","73","61.9","29.92","329","3","7.2","0.09","0.00"
"17:19:57","87.8","72.8","61.3","29.92","262","3.2","8.4","0.09","0.00"
"17:24:56","87.5","72.1","60.4","29.92","332","4.9","15","0.09","0.00"
"17:29:59","87.6","73","62.1","29.92","287","3.7","12","0.09","0.00"
"17:34:59","88.1","73","61.1","29.92","315","4.1","8.4","0.09","0.00"
"17:39:59","87.8","72.7","60.9","29.92","332","3.6","8.4","0.09","0.00"
"17:44:58","87.1","72.1","61.2","29.92","347","3.7","8.4","0.09","0.00"
"17:49:57","86.6","72.2","62.4","29.92","330","2.8","8.4","0.09","0.00"
"17:54:57","86.7","72.9","63.6","29.92","23","3.1","7.2","0.09","0.00"
"17:59:56","86.8","72.3","62.2","29.92","329","3.3","7.2","0.09","0.00"
"18:04:56","86.6","71.9","61.7","29.91","331","2.9","6","0.09","0.00"
"18:09:56","86.4","71.9","62.2","29.91","315","2.9","10.8","0.09","0.00"
"18:14:59","86.5","72.4","63","29.91","278","2.2","4.8","0.09","0.00"
"18:19:59","86.7","72.8","63.3","29.91","331","3.1","7.2","0.09","0.00"
"18:24:56","86.7","72.7","63.1","29.91","295","2.8","7.2","0.09","0.00"
"18:29:59","86.7","72.8","63.4","29.91","335","2.1","7.2","0.09","0.00"
"18:34:57","86.6","72.8","63.6","29.91","348","2.9","7.2","0.09","0.00"
"18:39:56","86.4","73","64.6","29.91","355","2.6","12","0.09","0.00"
"18:44:56","86.2","72.8","64.5","29.91","338","3.4","8.4","0.09","0.00"
"18:49:56","86.1","73","65","29.91","339","3","7.2","0.09","0.00"
"18:54:59","85.9","72.8","65","29.91","334","2.8","6","0.09","0.00"
"18:59:59","85.8","72.8","65.4","29.92","309","2.1","4.8","0.09","0.00"
"19:04:59","85.9","73","65.5","29.92","296","1.9","6","0.09","0.00"
"19:09:59","85.8","72.7","64.9","29.92","340","4.1","10.8","0.09","0.00"
"19:14:59","85.7","72.6","65","29.92","344","2.9","10.8","0.09","0.00"
"19:19:59","85.6","72.5","65","29.92","346","3.6","8.4","0.09","0.00"
"19:24:58","85.4","72.4","65.3","29.92","346","2","6","0.09","0.00"
"19:29:58","85.4","72.6","65.8","29.92","344","1.5","4.8","0.09","0.00"
"19:34:58","85.3","72.6","65.9","29.92","344","1","3.6","0.09","0.00"
"19:39:58","85.3","72.6","65.9","29.92","344","1.9","3.6","0.09","0.00"
"19:44:57","85.1","72.7","66.5","29.93","342","1.3","4.8","0.09","0.00"
"19:49:57","84.9","72.7","66.9","29.93","343","1.5","6","0.09","0.00"
"19:54:56","84.7","72.6","67.2","29.93","344","1","3.6","0.09","0.00"
"19:59:59","84.4","72.7","68","29.94","344","0.3","3.6","0.09","0.00"
"20:04:56","84.1","72.5","68.1","29.94","344","0.4","2.4","0.09","0.00"
"20:09:56","83.9","72.3","68.3","29.94","344","0.8","3.6","0.09","0.00"
"20:14:56","83.6","72.4","69","29.94","344","0.1","3.5","0.09","0.00"
"20:19:57","83.4","72.3","69.3","29.94","344","0","0","0.09","0.00"
"20:24:57","83.1","72.4","70.2","29.94","344","0","0","0.09","0.00"
"20:29:58","82.8","72.3","70.7","29.95","344","0","0","0.09","0.00"
"20:34:57","82.5","72.7","72.2","29.95","344","0","0","0.09","0.00"
"20:39:58","82.1","72.4","72.5","29.95","344","0","0","0.09","0.00"
"20:44:58","81.7","72.5","73.6","29.95","344","0","0","0.09","0.00"
"20:49:59","81.3","72.4","74.6","29.95","344","0","0","0.09","0.00"
"20:54:59","80.8","72.3","75.4","29.95","335","0","0","0.09","0.00"
"20:59:56","80.4","72.3","76.4","29.95","335","0","0","0.09","0.00"
"21:04:57","80.1","72.2","77","29.95","335","0","0","0.09","0.00"
"21:09:57","79.6","71.9","77.5","29.95","335","0","0","0.09","0.00"
"21:14:57","79.1","71.7","78.5","29.96","335","0","0","0.09","0.00"
"21:19:57","78.5","71.5","79.3","29.96","335","0","0","0.09","0.00"
"21:24:56","78","71.3","80","29.96","335","0","0","0.09","0.00"
"21:29:59","77.7","71.1","80.2","29.96","335","0","0","0.09","0.00"
"21:34:58","77.5","71.2","81","29.96","335","0","0","0.09","0.00"
"21:39:58","77.4","71.1","81.2","29.96","335","0","0","0.09","0.00"
"21:44:57","77.2","71.3","82.1","29.97","335","0","0","0.09","0.00"
"21:49:56","77.1","71.5","83","29.97","335","0","0","0.09","0.00"
"21:54:59","76.9","71.3","83","29.97","335","0","0","0.09","0.00"
"21:59:59","76.7","71.3","83.6","29.97","335","0","0","0.09","0.00"
"22:04:58","76.6","71.7","84.9","29.97","335","0","2.4","0.09","0.00"
"22:09:57","76.6","71.7","85","29.97","335","1.3","2.4","0.09","0.00"
"22:14:56","76.8","71.9","85","29.97","335","0.1","1.2","0.09","0.00"
"22:19:56","76.9","72","85","29.97","335","0","0","0.09","0.00"
"22:24:59","76.9","72","85","29.97","335","0","0","0.09","0.00"
"22:29:58","76.9","72","85","29.97","335","0","0","0.09","0.00"
"22:34:57","76.7","71.8","85","29.97","335","0","0","0.09","0.00"
"22:39:57","76.3","71.7","85.6","29.97","335","0","0","0.09","0.00"
"22:44:56","75.9","71.5","86.2","29.97","335","0","0","0.09","0.00"
"22:49:56","75.7","71.7","87.3","29.97","335","0","0","0.09","0.00"
"22:54:59","75.5","71.7","88","29.97","335","0","0","0.09","0.00"
"22:59:59","75.3","71.5","88","29.97","335","0","0","0.09","0.00"
"23:04:58","75.1","71.6","89","29.97","335","0","0","0.09","0.00"
"23:09:57","74.9","71.4","89","29.97","335","0","0","0.09","0.00"
"23:14:56","74.8","71.4","89.4","29.98","335","0","0","0.09","0.00"
"23:19:56","74.6","71.5","90","29.98","335","0","0","0.09","0.00"
"23:24:59","74.4","71.3","90","29.98","335","0","0","0.09","0.00"
"23:29:59","74.3","71.4","90.5","29.98","335","0","0","0.09","0.00"
"23:34:58","74.2","71.4","91","29.98","335","0","0","0.09","0.00"
"23:39:58","74","71.2","91","29.98","335","0","0","0.09","0.00"
"23:44:57","73.8","71","91","29.98","335","0.3","2.4","0.09","0.00"
"23:49:57","73.7","70.9","91","29.98","335","0.1","2.3","0.09","0.00"
